Location: Asheville, NC
(35.6000°N, 82.5500°W)
Time: 16:20:37
(UTC-05:00)

Vanguard 1 - Pass Details

Date: 18 February 2018
Orbit: 650 x 3833 km, 34.2° (Epoch: 21 February)

Event Time Altitude Azimuth Distance (km) Brightness Sun altitude
Rises 15:33:32 0° 241° (WSW) 6,453 15.4 28.3°
Reaches altitude 10° 15:38:35 10° 238° (WSW) 4,923 15.3 27.5°
Maximum altitude 15:50:37 58° 164° (SSE) 1,629 11.8 25.6°
Drops below altitude 10° 15:57:10 10° 86° (E) 2,773 12.0 24.5°
Sets 15:59:16 0° 82° (E) 3,503 12.4 24.2°
